This is the latest recevied weather packets stored in our database for station/object KI2K. If no packets are shown the sender has not sent any weather packets the latest 10 day(s).
| Time | Temp. | Humidity | Pressure | Rain* | Wind** | Luminosity | Snow |
|---|---|---|---|---|---|---|---|
| 1778018147 | 8.33° C | 99% | 1008.3 hPa | 6.1 mm | - | 22 W/m² | - |
| 1778017844 | 8.33° C | 99% | 1008.5 hPa | 3.56 mm | - | 18 W/m² | - |
| 1778017542 | 8.89° C | 99% | 1008.6 hPa | 1.78 mm | - | 18 W/m² | - |
| 1778017239 | 8.89° C | 99% | 1008.3 hPa | 1.27 mm | - | 15 W/m² | - |
| 1778016937 | 8.89° C | 99% | 1008.2 hPa | 1.27 mm | - | 30 W/m² | - |
| 1778016632 | 8.89° C | 99% | 1008.2 hPa | 0 mm | - | 34 W/m² | - |
| 1778016329 | 8.89° C | 99% | 1008.2 hPa | 0 mm | - | 19 W/m² | - |
| 1778016026 | 8.89° C | 99% | 1008 hPa | 0 mm | - | 23 W/m² | - |
| 1778015724 | 9.44° C | 99% | 1007.9 hPa | 0 mm | - | 31 W/m² | - |
| 1778015420 | 9.44° C | 99% | 1007.8 hPa | 0 mm | - | 32 W/m² | - |
| 1778015117 | 9.44° C | 99% | 1008 hPa | 0 mm | - | 23 W/m² | - |
| 1778014814 | 9.44° C | 99% | 1007.9 hPa | 0 mm | - | 29 W/m² | - |
| 1778014512 | 10° C | 99% | 1007.7 hPa | 0 mm | - | 35 W/m² | - |
| 1778014209 | 10° C | 99% | 1007.8 hPa | 0 mm | - | 42 W/m² | - |
| 1778013907 | 10° C | 99% | 1007.6 hPa | 0 mm | - | 52 W/m² | - |
| 1778013604 | 10° C | 99% | 1007.7 hPa | 0 mm | - | 45 W/m² | - |
| 1778013299 | 10° C | 99% | 1007.6 hPa | 0 mm | - | 42 W/m² | - |
| 1778012996 | 10.56° C | 99% | 1007.5 hPa | 0 mm | - | 50 W/m² | - |
| 1778012693 | 10.56° C | 99% | 1007.5 hPa | 1.78 mm | - | 49 W/m² | - |
| 1778012389 | 10.56° C | 99% | 1007.4 hPa | 1.78 mm | - | 45 W/m² | - |
| 1778012086 | 10.56° C | 99% | 1007.5 hPa | 0 mm | - | 46 W/m² | - |
| 1778011784 | 11.11° C | 99% | 1007.3 hPa | 0 mm | - | 36 W/m² | - |
| 1778011482 | 11.11° C | 99% | 1007.5 hPa | 0 mm | - | 23 W/m² | - |
| 1778011177 | 11.67° C | 99% | 1007.2 hPa | 0 mm | - | 25 W/m² | - |
| 1778010874 | 11.67° C | 99% | 1007.4 hPa | 0 mm | - | 22 W/m² | - |
* Rain latest hour (hover to see other rain measurements)
** Current wind speed in m/s (hover to see current wind gust speed)